FR5ZU Weather Reports


time (UTC)temp
C
wind
direction
speed
KPH
gust
KPH
rain 1hr
cm
rain 24hr
cm
rain mn
cm
humidity
%
barometer
mb
20260505073008 21 160 4.8 20.9 0.00 0.05 0.05 88 1017.4
20260505071506 21 105 8.0 12.9 0.00 0.05 0.05 88 1017.5
20260505070005 21 115 6.4 9.7 0.00 0.05 0.05 88 1017.9
20260505064506 21 108 4.8 9.7 0.00 0.05 0.05 88 1018.1
20260505063002 21 119 3.2 6.4 0.00 0.05 0.05 87 1018.2
20260505061621 21 141 4.8 8.0 0.00 0.05 0.05 87 1018.3
20260505060059 21 120 1.6 6.4 0.00 0.05 0.05 86 1018.5
20260505054556 21 85 1.6 8.0 0.00 0.05 0.05 85 1018.3
20260505053050 20 102 3.2 8.0 0.00 0.05 0.05 84 1018.2
20260505051547 20 120 1.6 4.8 0.00 0.05 0.05 85 1018.4
20260505041539 19 267 0.0 0.0 0.00 0.05 0.05 86 1018.4
20260505040048 18 241 0.0 0.0 0.05 0.05 0.05 87 1018.4
20260505034538 17 241 0.0 0.0 0.05 0.05 0.05 94 1018.2
20260505033026 16 241 0.0 0.0 0.05 0.05 0.05 95 1018.1
20260505031526 15 241 0.0 0.0 0.05 0.05 0.05 96 1018.2
20260505030025 15 92 0.0 0.0 0.00 0.00 0.00 97 1018.3
20260505024523 15 82 0.0 0.0 0.00 0.00 0.00 95 1018.1
20260505023022 15 82 0.0 0.0 0.00 0.00 0.00 94 1018.0
20260505021522 15 82 0.0 0.0 0.00 0.00 0.00 94 1017.8
20260505020034 15 82 0.0 0.0 0.00 0.00 0.00 94 1017.6
20260505014520 15 82 0.0 0.0 0.00 0.00 0.00 94 1017.4
20260505013021 15 82 0.0 0.0 0.00 0.00 0.00 94 1017.2
20260505011520 15 82 0.0 0.0 0.00 0.00 0.00 94 1017.3
20260505010019 15 82 0.0 0.0 0.00 0.00 0.00 94 1017.3
20260505004518 15 82 0.0 0.0 0.00 0.00 0.00 95 1017.3
20260505003016 15 82 0.0 0.0 0.00 0.00 0.00 95 1017.4
20260505001516 15 82 0.0 0.0 0.00 0.00 0.00 95 1017.4
20260505000017 15 82 0.0 0.0 0.00 0.00 0.00 96 1017.4
20260504234615 15 82 0.0 0.0 0.00 0.00 0.00 97 1017.3
20260504233013 15 82 0.0 0.0 0.00 0.00 0.00 97 1017.4
20260504231512 15 82 0.0 0.0 0.00 0.00 0.00 98 1017.5
20260504230012 15 82 0.0 0.0 0.00 0.00 0.00 98 1017.6
20260504224510 15 82 0.0 0.0 0.00 0.00 0.00 98 1017.6
20260504223010 15 82 0.0 0.0 0.00 0.00 0.00 98 1017.6
20260504221508 15 82 0.0 0.0 0.00 0.00 0.00 98 1017.8
20260504220021 15 82 0.0 0.0 0.00 0.00 0.00 99 1017.8
20260504214504 15 82 0.0 0.0 0.00 0.00 0.00 99 1018.0
20260504213006 15 82 0.0 0.0 0.00 0.00 0.00 99 1018.0
20260504211502 15 82 0.0 0.0 0.00 0.00 0.00 99 1018.0
20260504210105 16 82 0.0 0.0 0.00 0.00 0.00 100 1018.0
20260504204605 16 82 0.0 0.0 0.00 0.00 0.00 100 1018.1
20260504203058 16 82 0.0 0.0 0.00 0.00 0.00 99 1018.2
20260504201558 15 82 0.0 0.0 0.00 0.00 0.00 99 1018.3
20260504200057 15 82 0.0 0.0 0.00 0.00 0.00 99 1018.4
20260504194559 16 82 0.0 0.0 0.00 0.00 0.00 99 1018.4
20260504193112 16 82 0.0 0.0 0.00 0.00 0.00 99 1018.5
20260504191555 16 82 0.0 0.0 0.00 0.00 0.00 100 1018.7
20260504190106 16 82 0.0 0.0 0.00 0.00 0.00 100 1018.6
20260504184554 16 82 0.0 0.0 0.00 0.00 0.00 100 1018.6
20260504183100 16 82 0.0 0.0 0.00 0.00 0.00 100 1018.5
20260504181554 16 82 0.0 0.0 0.00 0.00 0.00 100 1018.4
20260504180131 16 82 0.0 0.0 0.00 0.00 0.00 100 1018.6
20260504174552 16 82 0.0 1.6 0.00 0.00 0.00 100 1018.6
20260504173052 16 82 0.0 0.0 0.00 0.00 0.00 100 1018.6
20260504171552 17 82 0.0 0.0 0.00 0.00 0.00 100 1018.6
20260504081522 22 130 8.0 16.1 0.00 0.00 0.00 82 1017.4